Theta_e
287 287 286 286 287 287 287 288 288 289 289 289 290 291 291 292 294 293 295 296 297 297 297 297 296 295 294 293 292 292 292 292 292 292 292 292 293 293 294 294 295 296 297 298 298 298 298 298 299 300 301 301 300 300 301 301 302 302 300 298 300 300 297 296 296 295 297 299 299 299 299 297 295 296 296 296 296 296 296 296 296 296 297 297 297
286 286 286 286 286 286 287 287 288 287 288 288 288 289 290 291 291 292 294 295 295 295 295 294 294 293 292 291 291 291 291 290 290 290 290 291 291 291 292 293 294 294 295 296 296 296 296 296 296 297 298 298 297 298 297 297 298 299 301 301 299 297 294 295 296 298 297 293 294 295 297 299 298 295 296 296 297 298 296 295 295 296 297 296 296
285 285 285 285 285 286 286 286 286 286 287 287 288 289 289 290 290 291 292 294 294 295 294 293 294 294 293 292 291 289 290 290 290 290 290 289 289 290 290 291 292 292 293 293 294 294 294 295 294 295 295 296 296 295 296 296 296 297 298 298 298 298 296 297 296 296 293 293 294 293 294 293 299 297 296 296 298 296 294 295 295 296 295 295 295
284 284 284 284 284 284 285 285 285 286 286 286 286 287 288 289 289 290 291 292 293 294 293 293 292 292 292 291 291 291 289 289 289 288 288 288 287 288 288 289 290 290 291 292 292 292 292 293 293 294 294 294 294 294 294 294 294 295 296 296 298 296 296 295 296 295 293 294 294 292 292 290 293 293 291 295 295 293 293 295 294 295 295 295 295
284 284 284 284 283 284 283 284 285 285 285 285 285 285 286 287 288 289 289 290 291 292 293 293 292 291 291 291 291 289 289 288 287 286 286 286 286 286 286 287 288 288 289 289 290 290 291 291 292 292 292 293 293 293 292 292 293 294 295 295 295 296 294 294 295 295 295 295 293 292 292 292 290 290 291 295 293 296 298 295 294 295 296 295 294
283 283 283 283 283 283 284 284 284 284 284 284 285 285 285 286 287 288 289 289 290 290 291 291 291 291 291 289 287 285 284 284 283 283 284 284 284 285 286 286 286 286 287 287 288 288 288 289 290 290 290 291 292 292 292 292 292 292 292 294 294 295 294 294 294 295 295 294 295 294 293 290 288 290 292 290 295 296 295 294 296 297 294 294 295
284 283 283 283 283 283 283 283 283 283 284 284 284 284 285 285 286 287 287 288 289 289 290 289 288 287 286 286 285 284 283 283 284 285 284 284 285 284 284 285 285 285 285 286 286 287 287 287 287 288 288 288 289 290 290 290 291 291 292 292 292 293 294 292 291 292 295 294 294 294 294 293 292 290 289 290 289 292 294 295 296 296 294 295 295
283 283 283 283 283 282 282 282 282 283 283 284 284 284 284 284 285 285 286 286 287 288 288 288 286 286 285 285 284 284 283 283 284 284 284 284 284 284 284 284 284 284 284 285 285 285 286 285 286 286 286 286 287 287 287 288 289 290 290 290 291 291 292 291 291 291 290 291 293 292 292 293 293 293 292 289 288 286 290 295 295 295 295 295 294
283 283 283 283 283 283 282 282 282 282 283 283 283 283 284 284 284 284 284 285 285 286 286 286 286 285 285 284 283 284 284 283 284 284 283 284 283 283 283 283 283 283 283 284 284 284 284 284 285 285 285 285 285 286 286 287 287 287 287 287 288 288 289 290 290 289 290 289 290 291 292 291 292 292 292 291 288 287 288 289 289 293 293 294 294
283 283 283 283 283 282 282 282 282 282 282 283 283 283 283 284 284 283 283 284 284 284 285 285 285 285 284 284 283 282 283 283 283 282 283 283 282 282 282 282 283 282 283 283 283 283 283 283 283 283 283 284 284 284 284 285 285 285 286 286 286 286 287 288 287 288 289 289 289 290 289 289 290 290 290 289 289 289 286 286 288 287 286 290 292
283 283 282 282 282 282 281 281 281 282 282 282 282 282 282 283 282 282 282 283 283 284 284 284 284 284 283 283 283 282 282 283 282 282 282 282 281 281 282 282 282 282 282 282 282 282 282 282 282 282 283 283 283 283 283 283 284 284 284 285 285 285 285 286 286 286 287 287 287 288 288 288 287 286 287 288 287 286 286 286 287 288 287 286 290
283 282 282 282 282 282 281 281 281 281 281 281 281 282 282 282 282 282 282 282 283 283 283 283 283 283 283 283 282 282 282 282 281 281 281 281 281 281 281 281 281 281 281 281 281 281 282 281 281 281 281 281 281 282 282 282 283 283 283 283 284 284 285 284 285 285 285 285 286 286 286 287 287 287 287 288 287 286 286 285 285 287 287 287 289
282 282 282 282 282 281 281 281 281 281 281 281 281 281 281 282 282 282 281 282 282 283 282 283 283 283 283 282 282 282 282 282 281 281 281 281 281 281 280 280 280 280 280 280 280 280 281 280 280 280 280 281 281 281 281 281 281 281 282 282 282 282 282 283 283 283 284 283 284 285 286 286 286 287 287 287 287 287 286 283 285 286 283 285 287
283 282 282 282 282 281 281 280 280 281 281 281 282 282 281 281 282 282 281 282 282 282 282 282 282 282 282 282 282 282 282 282 281 281 281 281 281 281 280 280 280 279 279 279 280 280 280 280 280 280 280 281 281 280 280 281 281 281 281 280 281 282 282 282 282 282 282 283 283 283 284 284 284 285 285 286 285 285 284 283 283 284 284 283 285
282 282 282 282 282 282 281 281 281 280 280 281 281 281 281 281 281 281 281 281 282 282 282 282 282 282 282 282 282 282 282 282 281 282 282 281 281 281 280 280 280 280 280 280 280 280 280 280 280 280 280 280 280 280 280 280 280 280 280 280 280 281 280 281 281 281 280 281 282 282 282 283 283 284 284 284 285 284 284 283 283 280 281 283 282
282 282 282 282 282 282 281 281 281 280 280 281 281 281 281 281 281 281 281 281 282 282 281 281 281 282 282 282 282 282 282 282 282 282 281 281 281 280 280 280 280 280 280 280 280 280 280 279 280 279 280 280 280 280 279 280 280 279 279 279 279 281 279 279 280 280 280 280 280 281 281 281 282 282 283 283 283 284 284 284 283 282 280 277 281
283 282 282 282 281 281 281 281 280 280 280 281 281 281 281 281 281 281 281 281 281 281 281 281 281 281 281 281 281 282 282 281 281 281 280 280 281 281 280 280 280 280 280 280 280 280 279 279 279 279 279 279 279 279 279 279 279 278 278 278 278 279 279 279 279 279 279 280 280 280 280 280 281 282 282 282 282 283 283 283 284 282 281 279 278
283 283 282 282 282 282 281 281 280 280 280 280 281 281 281 281 281 281 281 280 281 281 281 281 281 280 281 281 281 281 281 281 281 281 281 280 280 280 280 280 280 280 280 280 279 279 278 278 278 278 278 278 278 278 278 278 278 278 278 278 278 278 278 278 278 278 278 279 279 279 279 279 280 280 280 281 281 282 282 282 282 283 283 280 279
282 282 282 281 282 282 281 280 280 280 281 280 281 281 281 281 281 281 281 281 281 281 281 281 281 281 281 280 280 280 280 280 280 280 280 280 280 280 279 279 279 279 279 279 278 278 277 277 277 277 277 277 277 277 277 277 277 277 277 277 277 277 277 276 277 277 277 278 277 277 278 278 279 279 279 280 280 281 281 281 281 282 282 281 280
283 282 282 282 282 282 281 280 280 280 280 280 281 281 281 281 281 281 281 281 280 280 280 280 280 281 280 280 280 280 280 280 280 279 279 279 279 279 279 279 279 279 278 278 278 278 277 277 277 277 277 277 277 277 277 277 277 277 276 276 277 276 276 276 276 277 277 277 277 276 277 277 278 278 278 279 279 280 280 280 280 281 281 281 281
283 282 282 282 282 281 281 280 281 281 281 281 281 281 281 281 280 281 280 280 280 279 279 279 279 279 279 279 278 278 278 278 278 278 278 278 279 279 279 279 278 278 278 278 277 277 277 277 277 277 276 276 276 276 277 276 276 276 276 276 276 276 275 275 276 275 276 276 276 276 276 277 278 277 278 278 278 279 279 279 280 280 279 280 280
282 282 282 282 282 281 281 281 281 281 281 281 281 280 280 280 280 280 280 280 280 279 279 279 279 279 279 278 278 278 278 278 278 278 278 278 278 278 278 278 278 278 278 277 277 277 277 277 276 276 276 276 276 276 276 276 275 275 275 275 275 275 275 275 275 275 276 276 276 276 276 277 277 277 277 277 278 278 278 278 278 278 278 278 280
282 282 282 282 282 282 281 281 281 281 281 281 281 281 281 280 280 280 280 280 280 280 280 279 279 279 278 278 278 278 278 278 278 278 278 278 278 278 278 277 278 277 277 277 277 277 276 276 275 275 275 275 275 275 275 275 275 275 274 275 275 274 274 274 274 275 275 276 275 276 276 276 277 276 276 277 277 277 277 277 277 278 277 277 278
281 282 282 282 282 282 282 281 281 281 281 281 281 281 281 280 280 280 280 280 280 279 279 279 279 278 278 278 278 277 277 278 278 278 277 277 277 277 277 277 277 277 276 277 276 276 275 275 275 275 275 275 274 275 274 275 274 274 274 274 274 274 274 274 274 275 275 275 275 275 275 276 276 275 275 276 276 277 276 276 276 277 277 277 277
281 282 282 281 281 282 282 282 281 282 282 282 281 281 281 281 280 280 280 280 279 279 278 278 278 278 278 278 277 277 277 277 277 277 277 277 277 277 277 277 276 276 276 276 275 275 274 274 273 274 274 274 274 274 273 273 274 274 274 273 274 274 274 275 275 275 275 275 275 275 275 275 275 274 274 275 275 275 275 276 275 276 276 276 277
282 282 281 281 281 282 282 282 282 282 282 282 282 282 281 281 280 280 280 279 278 278 279 278 278 278 278 278 277 277 277 277 277 277 277 277 276 276 276 276 275 274 274 274 273 273 273 273 273 273 273 273 273 273 272 273 273 273 273 273 274 274 274 275 275 275 275 275 274 274 274 274 274 273 273 274 274 274 274 274 274 275 276 276 276
282 282 282 281 281 281 282 282 283 283 283 283 283 282 281 281 280 280 279 279 278 278 278 278 278 278 278 278 277 277 277 277 277 277 276 276 276 275 275 274 274 273 273 272 272 272 272 272 272 272 272 272 271 272 272 272 272 272 273 274 274 274 274 274 274 274 274 274 274 274 274 274 273 274 273 273 274 274 274 274 275 275 276 275 275
281 281 281 281 281 282 282 283 283 283 283 283 282 282 281 280 280 280 279 279 278 278 278 278 277 277 278 278 277 277 277 277 276 276 276 275 275 274 273 273 272 272 271 271 271 271 271 271 271 271 271 271 271 270 271 271 271 272 273 274 274 274 274 274 274 274 274 274 274 274 273 274 274 274 274 274 275 274 275 274 275 275 275 275 275
281 281 282 282 282 282 282 282 283 283 282 282 281 281 281 281 281 280 280 279 279 278 278 277 277 277 277 277 277 277 276 276 275 275 274 274 273 272 272 271 271 271 271 271 270 270 270 269 269 269 269 270 269 269 270 270 272 274 274 274 274 274 273 273 273 273 273 273 273 273 273 273 274 275 276 275 275 275 273 272 273 274 273 273 273
281 282 282 282 282 281 281 281 281 282 282 282 282 281 281 281 280 280 280 280 278 278 278 277 277 277 277 277 276 276 276 275 274 273 273 272 271 271 270 270 270 269 269 269 269 269 269 268 268 268 268 268 268 269 269 273 275 275 275 274 274 274 273 273 273 272 272 272 272 273 273 273 274 274 274 274 274 275 275 274 273 273 273 272 271
282 282 281 281 281 281 280 280 281 281 282 282 282 282 281 281 281 280 280 279 279 278 278 278 278 278 277 276 276 275 274 274 273 272 270 269 270 269 268 268 268 268 268 268 268 268 267 267 267 267 267 267 267 267 270 274 275 276 275 274 274 273 273 273 272 272 271 272 272 272 272 272 272 272 271 272 273 274 274 275 275 275 275 273 271
281 281 281 281 280 280 280 280 280 281 281 282 282 282 281 280 281 280 280 279 278 278 278 278 278 277 276 276 275 274 273 272 270 269 268 268 267 266 267 267 266 266 266 267 266 266 266 266 266 266 266 266 266 268 271 273 274 275 276 275 274 273 273 272 272 272 271 271 270 270 270 270 270 270 270 271 271 272 273 274 274 274 274 275 276
281 281 281 281 281 281 281 280 280 280 281 281 282 281 280 281 280 281 279 278 278 278 278 278 277 276 275 275 274 273 271 269 268 267 267 266 265 266 265 265 264 265 265 265 266 265 265 265 265 265 265 265 265 267 270 273 274 275 276 275 274 273 272 272 272 271 270 270 269 269 269 270 270 271 270 270 269 269 271 272 273 273 273 274 274
281 281 281 281 280 280 280 280 280 280 281 281 280 280 281 281 281 279 278 278 278 277 277 277 276 275 274 274 272 271 269 268 266 266 266 265 264 264 265 265 264 265 265 264 264 264 264 264 264 264 264 264 264 266 270 273 274 274 275 275 273 273 272 271 270 269 269 269 269 269 269 269 269 269 269 269 269 269 269 270 270 270 270 272 274
281 280 279 279 279 279 279 278 279 279 279 279 279 279 279 278 279 278 278 277 277 277 276 276 275 274 272 271 271 269 268 266 265 264 264 264 264 264 264 264 263 264 264 263 263 262 262 262 262 263 263 262 263 267 271 272 273 274 275 275 272 271 270 269 269 269 269 269 269 269 269 269 269 269 269 270 270 270 270 270 270 270 270 271 272
281 280 280 279 278 278 278 278 279 278 278 278 279 278 278 278 276 278 276 277 276 275 275 274 273 272 271 270 269 268 266 265 265 264 263 264 264 263 262 263 262 263 263 263 262 262 262 261 262 261 261 261 263 267 269 271 272 273 274 272 270 269 269 269 269 269 269 269 269 269 269 269 269 269 271 273 273 272 271 270 270 270 271 271 272
281 280 280 280 279 279 279 278 277 278 277 277 277 277 277 275 275 275 274 274 274 273 274 273 272 271 270 269 268 267 265 264 263 263 262 262 263 262 262 262 261 262 262 261 261 261 261 261 260 260 260 261 261 264 268 270 272 273 272 270 270 269 269 268 268 269 269 269 269 269 270 269 269 269 272 274 275 275 271 271 271 271 271 272 272
279 279 278 278 278 278 278 278 277 277 277 277 276 276 275 275 274 272 272 272 273 274 274 272 272 270 269 267 267 265 264 263 262 262 262 263 262 262 261 261 261 261 261 260 260 260 260 260 260 260 260 260 261 264 268 270 271 271 272 270 269 268 268 268 268 269 269 270 270 271 271 270 270 270 273 275 276 275 273 273 272 272 272 272 272
278 278 279 278 277 278 277 276 276 276 275 274 274 274 274 274 273 272 272 272 272 273 272 271 270 268 267 265 264 264 263 262 261 262 260 261 261 260 260 260 259 259 259 259 259 259 259 259 259 259 261 262 261 262 265 268 270 271 271 270 269 269 268 268 268 268 269 269 269 271 272 272 272 273 276 277 277 276 273 273 273 272 271 271 272
276 276 276 276 275 275 274 274 275 277 274 272 273 274 274 274 272 271 271 272 273 273 272 270 267 266 264 263 263 262 261 260 261 260 259 259 259 258 259 259 259 259 258 258 258 258 258 258 258 259 258 260 259 260 261 267 269 271 272 270 270 268 267 267 268 268 268 269 270 270 271 274 275 276 276 277 277 278 275 274 274 272 272 271 274
276 276 278 274 275 277 277 276 277 275 272 272 272 273 273 272 270 270 270 273 272 269 267 267 265 264 262 262 261 260 260 259 259 258 260 259 258 260 259 257 257 257 257 257 257 257 257 258 258 259 259 259 259 260 261 267 269 271 272 271 269 269 269 268 268 269 269 269 270 271 271 273 275 276 277 277 277 278 278 275 274 273 274 275 276
275 276 276 275 274 274 274 274 273 272 271 271 272 273 273 270 269 270 273 270 267 266 265 264 263 262 261 259 259 258 258 257 257 257 257 257 258 257 257 256 257 256 256 256 256 257 257 257 258 258 258 258 260 263 262 266 269 270 271 272 270 270 271 270 270 270 270 270 270 271 271 273 275 276 277 278 278 278 278 276 275 278 279 279 276
275 275 275 275 274 274 274 276 274 270 270 271 271 272 270 269 270 272 268 266 265 264 264 263 262 260 259 257 257 257 257 256 256 256 256 256 256 255 255 255 255 255 255 255 256 256 256 257 257 258 258 258 259 260 264 264 268 270 272 273 273 273 274 273 271 269 270 270 272 272 272 275 276 277 277 278 278 278 278 276 278 279 279 279 277
274 276 275 274 275 275 275 274 271 269 269 270 271 272 270 269 272 267 264 263 263 263 262 261 260 259 257 257 256 255 255 255 255 255 254 254 255 255 254 255 255 255 255 255 256 256 256 256 257 258 258 259 260 260 263 267 268 270 272 273 274 274 275 272 272 271 271 271 271 271 272 276 277 278 278 278 278 277 275 277 278 278 278 277 274
275 275 274 273 275 275 275 273 270 267 267 268 269 272 269 269 269 264 264 262 262 260 260 260 258 257 256 255 254 253 253 253 253 255 255 255 254 253 255 254 254 255 255 255 256 255 255 255 256 257 258 259 261 262 263 266 269 271 272 273 273 274 275 275 272 272 272 272 274 276 277 277 277 277 277 276 274 274 275 276 276 276 275 272 270
272 272 271 273 273 272 270 272 270 267 266 266 267 270 270 270 265 264 263 262 260 260 259 258 256 255 254 253 254 253 253 253 254 254 254 255 255 255 255 254 254 255 254 254 255 255 255 255 256 257 258 260 262 264 265 266 268 269 270 272 273 274 274 274 274 273 274 276 276 276 277 276 274 273 271 270 270 270 273 273 273 272 269 268 268
273 274 271 270 269 271 271 271 272 268 266 265 265 267 268 264 263 263 262 260 260 260 260 257 256 256 253 253 255 255 254 254 253 254 254 254 255 254 254 255 255 254 254 254 254 255 255 256 256 258 259 262 263 264 265 266 267 268 269 270 271 271 273 274 272 272 273 272 273 273 272 273 272 272 271 270 269 268 266 266 267 267 267 267 267
274 273 270 268 269 271 272 271 272 271 267 265 264 264 263 262 262 262 260 259 260 260 260 258 256 255 255 253 255 256 256 255 254 253 254 253 253 254 254 255 255 255 254 255 255 256 256 257 258 259 261 262 263 265 266 266 268 269 270 271 271 271 271 271 271 272 272 272 270 270 269 267 266 265 264 263 263 264 264 265 265 266 266 267 268
272 271 270 272 271 271 271 271 272 271 266 264 263 262 260 262 262 260 259 260 260 259 258 256 254 253 254 254 254 255 255 255 254 251 252 254 254 254 254 255 255 255 256 256 257 258 259 259 260 261 261 262 262 264 267 271 271 273 271 271 270 271 272 271 272 273 270 269 267 265 263 262 261 261 261 261 261 262 263 264 263 263 264 264 264
272 270 269 270 270 271 271 270 272 268 265 264 263 261 259 261 260 259 260 261 259 258 256 255 254 254 253 254 254 253 252 253 253 253 252 252 257 261 259 257 257 262 265 267 266 261 261 262 261 262 263 261 263 267 272 273 273 273 273 274 274 274 274 272 272 272 268 263 262 260 259 259 259 259 259 260 260 261 261 261 262 263 263 262 263
271 268 266 268 269 269 269 269 270 266 264 263 263 261 259 259 259 259 260 260 258 258 257 256 254 254 255 254 254 253 253 252 252 253 252 253 253 256 262 266 267 267 268 269 270 271 272 272 270 268 269 272 272 272 272 272 272 272 273 274 273 273 272 271 271 267 262 259 258 258 258 258 259 259 259 259 260 260 260 260 260 261 262 262 263
Wind_Speed
5 5 6 7 7 7 6 6 6 5 7 8 8 9 8 7 7 10 7 6 5 6 6 6 7 8 9 10 8 6 8 8 10 9 10 9 9 10 10 9 9 9 9 9 10 10 9 9 8 8 8 8 8 8 6 6 5 4 3 5 6 7 6 5 4 2 3 4 2 4 5 1 3 3 3 4 3 3 2 3 3 4 3 3 3
6 7 9 8 7 9 7 6 7 8 8 8 9 8 7 7 9 6 5 6 8 7 7 9 7 7 9 7 8 7 7 9 9 9 9 8 11 10 9 9 10 10 9 9 9 9 8 8 8 8 7 7 7 6 7 7 8 8 4 4 4 5 4 4 5 4 3 6 6 6 2 4 3 3 4 3 4 3 3 3 3 3 4 4 3
4 5 6 7 8 8 7 7 6 6 5 8 7 7 8 7 6 5 6 7 7 6 7 8 6 6 7 5 6 8 7 7 8 7 8 10 11 11 10 10 10 10 10 10 9 9 8 8 8 7 8 6 7 8 8 9 8 8 8 5 4 4 4 4 6 5 4 4 2 2 3 6 2 3 2 10 8 4 3 2 2 3 4 3 3
4 4 5 6 6 6 7 7 7 6 6 7 8 7 5 6 6 6 7 7 7 7 9 9 10 10 10 9 9 8 7 6 8 8 9 11 12 10 10 9 10 10 10 10 9 9 9 9 7 8 8 8 7 8 9 9 8 8 7 7 3 6 5 6 7 6 4 5 4 3 3 2 6 3 8 9 4 2 2 3 2 3 3 3 3
2 3 4 5 6 7 6 6 5 6 7 7 7 6 4 6 6 6 6 6 5 6 7 7 8 8 7 8 6 7 7 7 8 10 9 9 10 11 10 10 11 10 10 11 10 10 10 9 9 8 9 9 8 8 8 8 8 7 8 7 8 5 5 4 6 6 7 6 3 3 3 2 2 7 11 4 3 10 7 4 3 4 4 5 4
1 1 2 2 3 4 6 6 7 6 7 6 5 5 5 5 6 6 6 6 6 6 4 4 5 6 5 6 8 8 10 9 10 8 8 9 9 7 10 11 10 11 10 10 11 10 10 10 10 10 10 9 8 8 7 8 10 9 8 7 8 8 4 5 6 6 7 8 7 4 1 1 5 6 5 8 3 3 1 2 5 5 3 4 3
2 2 2 3 4 4 5 6 5 6 6 5 5 6 5 5 5 5 6 6 6 6 5 5 8 8 10 10 9 8 11 6 5 5 6 6 6 9 8 10 10 10 11 10 10 10 10 10 10 9 9 9 8 8 9 9 8 8 7 8 7 6 6 7 7 6 2 6 6 6 4 2 2 3 5 6 11 2 2 4 6 3 4 5 6
2 2 1 2 2 2 3 3 4 4 4 4 5 5 6 6 6 6 5 6 6 5 7 5 8 8 10 10 8 8 9 9 6 6 5 5 8 8 8 8 9 9 9 10 10 10 9 10 9 9 9 9 8 8 8 7 7 7 8 8 7 7 7 6 6 6 6 5 5 5 4 3 2 1 1 3 4 9 13 1 3 2 5 5 5
4 4 3 2 1 2 2 3 3 4 5 5 5 5 5 5 6 7 8 7 6 8 8 8 7 7 8 8 11 7 8 7 6 5 6 5 10 7 8 7 8 9 10 9 10 10 10 9 9 10 10 9 8 8 8 8 9 9 10 9 8 7 7 6 6 6 6 5 5 6 5 6 4 3 3 3 2 7 8 10 13 5 3 2 2
4 3 2 1 1 1 2 1 5 4 4 4 5 5 5 5 7 9 9 7 6 8 8 9 8 6 9 8 12 8 6 6 6 7 6 5 9 8 7 7 7 8 9 9 10 10 10 10 9 10 10 9 8 9 8 9 9 9 8 8 8 8 6 6 6 5 4 4 5 4 5 5 3 3 3 5 2 2 6 10 10 14 14 5 6
5 4 2 2 1 1 3 5 3 4 4 5 5 5 5 5 5 10 8 6 6 7 7 9 7 6 8 9 10 10 8 7 8 7 5 6 7 7 7 7 7 7 7 8 9 8 9 9 9 8 8 8 8 9 8 7 7 7 6 8 9 9 6 6 6 5 4 4 5 5 4 4 3 4 5 4 4 4 6 6 8 9 10 15 7
6 5 5 4 4 4 5 5 4 4 5 5 5 5 5 4 5 11 8 7 6 6 8 8 7 8 8 9 10 8 8 7 9 8 6 7 6 6 5 6 7 6 7 7 8 8 7 7 7 8 8 8 8 7 7 7 6 6 6 6 6 7 7 6 6 7 8 5 5 4 4 3 3 3 4 4 4 5 5 8 8 9 9 7 8
7 6 6 5 6 6 6 5 5 5 5 5 5 5 5 5 5 11 9 6 6 6 8 8 8 8 7 8 8 7 8 9 8 8 5 6 5 6 6 7 5 7 7 7 8 8 7 8 8 8 7 8 7 7 7 7 6 6 7 7 7 9 7 6 6 7 6 7 6 5 3 4 4 3 4 4 4 4 4 7 7 5 9 12 8
7 7 6 6 6 6 5 5 5 4 4 5 5 5 5 6 6 10 8 6 6 7 8 9 9 8 7 7 7 7 8 7 6 7 6 5 5 6 6 6 7 7 6 7 5 5 6 6 6 6 6 6 7 7 6 6 6 6 6 7 7 6 6 6 6 6 5 6 5 5 5 5 4 4 4 3 4 5 5 6 9 7 7 11 9
7 7 7 7 7 7 6 6 5 5 5 4 5 5 5 6 7 9 9 6 7 7 7 9 7 7 7 6 6 6 6 6 6 5 5 6 5 6 6 5 7 5 6 4 5 6 6 6 6 6 6 6 6 6 5 5 5 5 5 5 5 5 6 5 5 6 6 7 7 6 6 4 4 5 5 5 4 4 5 6 7 11 9 6 9
8 8 8 7 6 6 6 6 5 5 5 5 5 5 6 6 6 7 8 7 7 8 8 7 7 6 6 7 6 6 5 5 6 5 5 5 5 6 6 6 5 5 4 5 5 5 6 6 6 6 6 6 6 6 6 6 6 6 5 5 6 4 5 6 6 5 6 7 6 6 5 6 5 5 5 5 5 5 5 5 5 5 7 12 9
9 9 8 8 6 6 7 7 6 6 5 6 6 5 6 7 8 8 7 7 7 7 7 6 6 7 6 6 6 6 7 7 6 6 6 5 5 5 6 5 5 5 4 4 5 5 5 5 5 5 6 5 5 5 5 5 4 4 4 5 5 5 5 5 5 5 5 5 5 6 5 6 6 5 5 5 5 5 5 5 4 5 6 8 9
8 7 7 7 8 9 7 6 6 7 7 6 6 5 5 6 8 9 8 9 7 7 7 7 7 7 7 6 6 6 6 6 6 6 5 6 6 5 5 5 5 4 4 3 4 4 4 4 4 4 4 4 5 4 4 4 3 3 3 3 4 3 3 3 3 3 5 4 5 5 5 5 6 6 6 6 5 6 5 5 5 5 5 8 9
10 10 8 8 8 8 8 8 7 7 6 6 6 6 5 6 6 7 9 8 8 7 6 5 6 5 5 6 7 7 6 6 6 6 5 7 6 5 5 4 3 3 3 3 3 4 4 4 4 4 4 4 4 4 4 4 5 4 4 4 4 4 5 5 4 4 4 5 6 6 5 5 5 6 6 6 5 5 6 6 6 5 6 7 9
12 9 8 8 9 9 9 9 9 9 8 7 7 6 7 6 7 7 6 6 7 8 7 8 6 7 7 6 5 5 5 6 5 6 5 5 5 5 4 5 4 3 3 4 4 5 4 5 4 4 5 5 6 6 6 6 6 5 6 6 6 6 6 7 6 5 4 5 7 7 7 6 7 6 6 6 6 6 6 6 6 6 7 7 8
9 8 8 9 9 7 7 8 7 6 6 6 6 8 7 6 7 8 10 9 8 8 7 7 7 7 8 8 7 6 6 5 6 5 6 5 5 4 4 4 3 4 3 4 4 4 4 4 5 5 5 5 6 6 5 5 5 5 5 5 6 6 7 6 6 7 6 6 7 7 8 7 7 8 7 7 7 7 7 7 7 7 7 7 7
7 7 9 8 8 8 7 6 6 7 7 8 7 7 7 8 8 8 7 8 9 8 8 8 7 7 8 7 6 5 5 5 6 6 6 5 4 4 4 3 5 3 3 4 4 3 3 4 4 4 4 4 4 4 5 4 5 5 5 4 5 6 6 6 6 7 7 6 7 8 8 8 7 8 9 9 8 8 8 8 8 7 8 8 7
7 9 8 8 8 9 10 11 10 10 9 8 8 8 8 8 8 8 9 9 9 9 8 7 7 7 8 6 6 5 5 6 6 5 5 5 4 4 3 4 4 3 3 3 3 2 3 3 3 3 4 4 4 4 4 5 5 6 6 6 6 6 7 7 7 8 8 7 8 8 9 8 7 9 9 8 8 9 8 9 10 8 9 10 9
8 7 7 7 8 8 8 9 9 9 10 10 8 8 8 8 9 8 9 10 8 8 8 7 7 7 7 6 6 5 5 5 5 4 5 4 3 3 3 4 3 2 2 2 2 2 2 2 2 3 3 3 4 4 4 5 5 6 6 7 7 6 7 7 7 8 8 8 8 9 8 9 9 10 10 9 8 8 9 9 11 10 9 11 10
9 9 9 8 8 11 10 10 11 9 8 9 9 9 9 9 8 9 8 9 8 8 8 8 8 8 7 6 6 5 5 5 5 4 4 4 3 3 3 3 3 2 1 1 1 1 0 1 1 2 3 3 3 4 5 5 5 5 6 6 7 7 7 7 7 7 8 8 8 8 10 9 10 10 10 8 9 11 10 10 10 10 10 10 10
8 8 9 12 11 9 10 11 9 10 10 10 9 9 9 8 9 8 9 9 8 8 8 9 8 8 7 7 6 5 6 5 5 4 4 4 3 3 3 2 2 1 2 2 2 1 1 0 1 1 2 3 3 4 5 5 5 6 6 6 7 7 7 7 7 7 7 7 8 9 9 9 9 9 10 10 10 11 11 11 12 11 11 11 12
11 11 10 7 9 12 10 10 10 10 10 9 10 9 9 9 9 8 7 9 9 9 9 9 8 8 8 8 7 7 6 6 5 5 4 3 3 3 3 2 2 2 3 2 2 2 0 0 1 1 2 2 3 4 4 5 6 6 6 7 7 7 7 7 7 7 7 7 8 8 8 8 9 9 10 10 10 12 11 13 12 12 12 12 13
5 6 9 12 11 9 10 11 10 10 9 9 9 10 11 10 10 9 8 7 7 9 9 9 9 8 8 8 7 7 6 6 5 4 4 4 3 3 2 2 2 3 2 2 1 1 0 0 1 1 2 2 3 4 4 5 6 6 6 7 7 7 8 8 7 7 7 7 7 8 8 8 8 8 9 10 10 10 10 12 11 11 11 13 13
8 10 10 11 11 10 10 10 10 9 11 11 10 9 9 9 9 9 9 9 8 8 9 9 8 9 9 8 7 6 5 6 6 5 5 4 3 2 2 2 2 2 1 1 0 1 1 0 0 1 1 2 2 3 4 5 6 7 7 9 9 9 9 9 8 7 7 7 7 7 7 7 8 12 15 14 14 14 12 12 12 11 12 13 12
10 10 10 9 8 7 8 9 9 11 12 12 11 11 12 12 12 11 10 9 8 9 9 9 9 9 8 7 7 7 7 7 7 6 5 4 3 3 3 2 2 1 1 1 1 1 1 0 1 1 2 2 2 3 6 11 10 9 9 8 8 8 8 8 9 9 9 7 7 7 7 11 12 14 14 17 17 17 17 14 13 12 12 12 12
9 8 8 8 8 8 8 10 12 12 13 13 13 13 12 11 11 11 11 10 9 9 9 10 10 9 8 7 7 7 7 8 6 6 3 2 3 2 1 1 1 2 2 2 1 1 0 0 1 1 2 2 2 4 10 11 12 13 9 9 8 9 9 9 8 9 10 10 8 8 8 9 10 11 11 15 16 17 17 19 20 20 17 14 12
9 8 7 8 8 9 10 12 12 12 11 11 11 10 9 10 10 11 10 8 9 10 10 10 9 7 8 9 8 8 8 7 6 4 4 2 2 2 2 3 3 2 2 2 1 1 0 0 1 1 2 3 3 7 11 12 12 12 11 9 8 8 8 9 9 9 9 9 9 9 8 7 8 9 11 12 14 17 18 20 20 19 19 19 19
7 7 8 9 10 10 11 10 8 10 11 12 10 9 10 11 11 11 7 9 10 10 9 9 8 8 8 8 8 8 6 6 5 4 3 3 3 4 4 4 4 2 2 2 1 0 1 1 1 2 3 3 4 8 12 12 12 13 13 11 8 8 9 9 9 9 10 10 9 9 9 8 7 13 11 11 12 13 15 19 19 19 18 18 17
5 6 7 7 6 6 7 9 9 9 10 8 9 11 11 9 8 5 9 9 9 9 9 9 8 8 8 8 9 7 7 6 5 5 4 3 4 5 4 3 1 1 1 2 1 1 1 1 2 3 3 4 5 9 12 13 13 13 13 12 9 9 9 10 10 10 9 10 10 10 10 10 9 10 10 12 12 13 14 13 13 12 13 15 19
6 6 7 7 7 7 6 6 8 8 6 7 8 8 5 5 6 8 7 9 8 9 8 8 8 7 7 7 9 7 7 6 6 5 4 5 5 4 4 3 1 1 2 2 2 1 2 2 2 3 4 4 4 11 13 14 13 14 14 13 8 8 8 9 9 10 10 10 11 10 12 13 12 12 10 13 14 15 14 13 13 13 14 15 15
8 9 8 8 9 10 10 9 6 6 7 8 9 7 7 7 6 8 7 8 8 7 8 7 7 7 8 9 8 7 6 6 7 5 5 5 5 5 3 2 1 1 1 1 2 1 2 3 3 4 4 5 5 11 14 14 14 14 15 9 7 8 9 9 9 10 10 10 10 10 11 12 13 13 17 21 19 17 15 14 15 14 14 14 14
6 7 8 8 7 8 8 5 6 7 7 9 6 7 7 6 7 7 6 5 5 7 9 9 8 9 9 9 9 8 7 7 6 6 6 6 5 4 2 1 0 2 2 2 2 2 2 3 4 3 5 5 5 9 13 14 14 16 12 8 8 8 8 9 10 11 11 11 10 10 11 12 13 14 19 23 24 23 16 15 15 15 13 11 11
4 3 3 3 5 3 4 7 7 8 8 5 6 8 8 8 7 6 6 7 6 9 9 8 9 8 9 9 8 7 8 6 6 7 6 5 2 1 1 1 1 2 3 3 3 3 2 2 4 5 4 6 5 8 14 15 15 15 13 9 8 8 10 11 11 11 10 10 11 16 16 15 16 17 21 24 25 22 16 15 13 15 15 14 15
7 8 8 8 7 6 5 5 6 7 7 6 7 8 8 8 7 8 7 7 9 9 9 10 9 8 8 8 6 6 6 7 6 6 5 4 2 2 1 0 1 1 3 2 3 3 3 2 3 5 8 8 7 8 13 15 16 15 12 9 8 9 9 9 10 11 10 11 13 14 20 19 17 19 26 26 27 22 16 15 16 16 14 12 11
6 5 4 3 6 7 4 5 7 8 6 8 8 8 7 8 8 7 7 8 11 12 8 6 8 8 8 6 5 6 6 6 6 5 4 3 2 1 1 1 1 1 2 2 3 3 5 4 3 4 4 5 7 5 8 16 15 15 15 10 9 8 10 11 11 11 11 11 11 11 12 18 21 24 25 28 27 27 20 17 16 15 14 14 12
7 7 5 5 6 8 10 11 10 6 7 7 8 7 7 6 7 8 9 12 7 6 8 8 9 8 6 6 5 6 7 5 4 5 4 2 2 2 2 2 2 2 2 3 4 4 4 4 2 4 3 4 5 7 7 15 16 16 16 13 8 9 11 11 11 10 9 9 9 9 8 15 24 26 25 27 28 29 28 20 16 15 15 19 22
1 5 7 5 5 5 4 3 4 7 7 8 8 9 7 8 6 10 12 3 7 8 8 9 8 7 7 6 6 4 5 5 4 5 4 3 2 2 2 2 2 2 3 4 4 3 4 4 2 2 3 4 5 10 8 12 16 16 16 17 11 10 11 10 10 7 10 12 14 14 13 17 24 26 27 28 30 30 30 19 18 25 29 29 21
4 3 5 7 7 7 9 10 6 7 7 7 8 8 7 6 10 10 5 7 7 8 8 8 8 7 7 7 6 6 5 5 5 5 5 4 3 2 3 3 2 2 3 5 4 4 5 5 3 1 2 3 4 4 12 11 15 17 17 16 17 15 18 13 12 13 13 12 11 11 14 24 27 27 27 28 29 31 25 18 27 28 29 31 26
5 6 8 8 9 8 8 6 5 6 6 7 10 10 8 9 12 5 7 6 7 7 8 8 7 7 7 6 5 5 5 4 5 5 4 5 4 3 3 3 1 1 2 3 2 3 3 5 7 3 1 2 3 4 8 13 13 17 17 19 18 18 19 13 12 12 12 14 15 12 13 25 27 28 29 27 26 24 19 28 29 30 30 27 14
9 10 7 7 11 11 10 7 6 7 7 8 7 10 9 11 6 8 8 9 9 9 8 8 7 7 6 6 5 5 5 5 5 6 5 5 4 3 2 2 1 1 2 3 3 2 3 4 5 6 5 3 4 5 5 8 15 17 18 18 18 20 20 20 14 11 11 11 18 27 29 28 27 25 23 22 19 20 25 26 27 26 25 12 10
4 3 5 8 8 6 6 8 7 7 8 7 8 8 12 11 7 8 9 9 10 10 9 8 7 6 7 6 7 5 5 6 5 5 5 5 5 4 3 2 2 2 2 3 4 3 3 4 5 5 7 7 5 5 6 7 9 12 13 16 20 19 19 20 19 15 22 26 26 26 26 21 17 16 15 12 12 14 21 24 24 22 12 11 11
8 11 6 5 6 7 9 10 11 8 9 8 8 9 7 5 10 9 10 10 10 10 9 8 8 7 6 7 7 6 5 5 4 4 4 4 4 3 3 3 3 3 3 3 4 3 4 5 6 7 7 7 6 6 7 7 6 7 7 9 10 9 16 17 14 11 14 12 13 12 13 19 18 22 21 19 18 17 14 11 10 10 10 10 10
9 6 6 6 6 9 11 10 12 11 9 9 8 9 7 7 7 10 10 10 10 11 11 10 9 8 7 7 7 5 6 5 5 5 4 4 3 3 4 5 5 5 4 4 3 5 6 6 7 6 7 7 6 7 8 6 7 6 6 8 9 10 10 9 9 9 11 11 10 12 13 9 10 9 9 8 9 9 10 10 9 10 10 11 13
6 7 8 10 10 11 11 10 12 7 7 8 9 8 7 9 10 10 11 12 11 8 7 7 7 7 7 6 6 6 5 5 4 4 3 4 4 4 6 5 6 4 5 6 6 7 7 7 6 6 6 7 6 6 6 10 11 15 13 11 10 9 8 9 13 20 14 9 9 9 8 8 7 9 9 9 9 9 9 10 10 9 10 11 11
7 5 7 8 9 11 11 11 11 6 8 9 9 8 8 8 9 10 11 12 11 9 7 8 7 7 6 6 5 5 4 4 5 4 3 4 6 10 8 6 5 10 15 16 13 8 8 7 8 9 9 9 7 7 15 17 17 17 18 19 18 18 18 15 18 21 12 7 6 6 7 7 8 8 9 9 10 10 10 11 10 12 11 10 10
6 5 6 9 10 9 9 9 10 6 8 9 9 9 9 8 9 10 11 10 11 9 7 7 7 7 7 7 5 5 4 4 4 3 3 3 4 5 9 13 13 12 12 14 15 18 18 17 11 6 7 16 18 17 16 16 16 16 17 17 16 17 17 17 18 10 5 6 6 7 8 8 8 8 8 9 9 10 10 10 11 11 10 10 11
Wind_Direction
326 330 357 350 350 356 358 0 353 16 27 17 27 25 23 23 32 39 19 23 43 58 52 53 68 79 64 58 66 46 55 57 54 47 50 45 39 41 40 41 37 41 36 41 43 48 46 41 39 37 39 45 47 43 30 38 41 45 77 48 44 49 30 6 3 325 353 350 333 309 315 317 284 295 340 356 324 309 295 300 347 331 312 325 340
356 9 3 357 357 359 0 7 5 24 11 18 30 18 19 23 42 35 24 42 50 58 77 69 59 62 90 79 82 58 46 47 52 44 46 46 43 40 41 38 40 42 36 40 45 46 50 49 45 42 39 49 56 49 42 38 34 33 24 68 42 61 56 1 356 335 44 1 328 330 323 315 303 43 31 14 335 304 343 348 333 312 334 352 340
5 11 2 358 356 359 4 4 5 15 14 29 17 26 23 28 32 34 35 49 52 57 69 79 74 71 82 91 80 85 60 62 67 59 51 53 46 42 38 37 37 40 35 38 44 40 46 50 46 44 42 36 47 43 38 39 32 35 31 42 58 48 73 31 21 35 19 324 250 293 346 338 1 33 352 342 328 360 338 342 340 332 345 349 331
21 7 355 355 359 360 5 6 356 357 20 23 18 23 24 28 23 30 39 44 56 60 79 82 85 90 83 87 78 75 82 73 71 57 51 49 47 41 41 39 40 44 38 39 44 43 40 44 43 43 41 35 42 47 38 35 28 27 27 33 31 59 37 36 24 24 41 359 18 356 315 327 326 43 342 306 312 263 19 344 25 345 339 346 335
38 21 7 4 5 5 -0 350 343 13 18 19 9 17 26 23 22 34 45 47 45 52 76 98 105 94 94 90 94 94 68 58 57 47 43 49 52 38 35 35 39 42 39 40 42 44 41 40 42 41 41 34 37 43 41 34 31 29 19 31 28 42 52 29 27 29 46 36 50 358 351 358 16 319 322 306 32 344 324 13 355 2 2 358 354
162 327 327 330 3 357 7 3 7 12 18 2 359 13 23 29 30 40 54 49 48 46 52 71 77 92 105 93 74 68 58 42 45 45 41 42 50 48 43 37 38 43 39 38 39 39 41 38 38 40 37 34 33 40 36 32 28 27 20 24 30 21 52 43 36 30 38 37 37 66 71 333 330 317 355 319 312 242 337 354 16 341 26 356 338
59 48 25 41 13 26 21 14 3 13 9 351 7 20 28 41 45 50 59 58 47 49 47 86 84 80 79 81 88 86 98 71 68 58 70 66 63 55 53 45 38 44 42 40 41 41 44 41 41 43 43 41 33 39 37 32 29 26 16 29 26 21 27 59 34 3 9 38 26 38 43 26 272 327 347 321 330 356 145 346 329 6 12 336 316
176 162 17 24 32 36 12 351 2 359 345 11 28 20 37 42 52 59 59 62 51 61 68 55 91 89 92 87 82 86 86 104 90 79 68 71 68 56 54 50 45 43 44 42 40 41 43 45 41 44 47 41 39 43 41 29 32 30 31 31 35 31 25 46 46 23 36 15 4 23 29 18 6 295 65 347 306 313 319 282 161 331 326 305 291
188 163 128 37 342 355 3 19 357 18 15 26 27 31 32 39 59 63 59 59 53 60 76 66 78 94 98 106 94 79 90 92 92 78 75 63 73 57 56 51 50 47 43 41 38 39 40 42 39 42 42 38 36 38 37 36 36 32 26 28 29 32 32 31 45 34 24 25 359 13 9 13 10 75 80 32 344 315 303 325 317 286 244 239 294
189 200 204 209 342 346 332 3 43 18 11 24 35 35 37 41 64 63 52 46 45 60 74 77 78 92 95 95 100 102 96 93 82 74 68 58 71 62 58 54 46 46 42 39 40 39 40 40 42 42 41 38 38 36 31 31 28 32 31 33 29 36 28 32 44 32 34 27 26 6 24 4 13 17 22 360 320 233 296 315 312 324 327 327 327
188 180 200 213 215 163 59 77 44 43 38 45 44 46 40 48 67 72 55 54 50 61 69 75 78 75 92 96 99 105 99 97 91 70 70 62 68 61 60 62 55 52 46 44 43 38 43 43 45 46 45 41 38 35 33 31 28 29 27 33 35 30 22 22 33 39 29 27 25 23 22 22 11 353 340 343 329 307 310 291 300 304 306 312 320
185 185 174 153 119 94 95 88 75 69 66 63 64 57 63 57 75 86 63 53 55 64 74 75 77 75 79 86 90 93 99 98 93 91 75 77 70 74 71 67 55 55 45 44 36 31 37 43 42 45 43 38 38 34 32 30 29 31 34 34 31 29 24 22 20 19 12 10 18 13 8 2 1 351 335 324 312 306 299 290 301 307 297 255 298
191 189 178 176 170 153 131 129 117 101 101 91 82 84 83 80 78 92 74 57 61 64 77 78 78 74 82 86 90 95 92 90 91 92 89 88 88 84 71 69 60 54 40 46 34 29 34 35 34 35 35 36 32 31 25 23 23 30 31 31 30 26 18 12 21 14 7 9 350 350 351 355 352 341 323 315 312 303 292 296 288 298 293 304 306
192 185 190 185 178 173 158 147 141 131 104 91 87 88 90 90 84 88 90 66 75 76 76 81 72 75 75 82 85 89 89 92 95 99 97 91 87 82 76 75 70 63 54 49 32 34 43 46 46 48 45 41 39 36 34 29 24 32 29 29 27 23 12 14 14 7 5 1 350 346 356 345 339 340 327 320 321 322 314 311 309 297 275 286 293
192 190 191 191 187 174 166 163 163 148 127 103 101 101 98 96 97 100 98 77 77 78 80 79 81 75 75 77 82 87 99 96 91 92 98 97 88 87 78 72 73 66 62 56 43 47 46 42 42 45 39 38 38 38 35 34 33 32 36 31 24 24 10 11 9 6 359 354 352 350 335 336 338 337 334 329 326 311 309 314 319 319 314 287 302
191 195 200 197 183 168 166 172 170 155 143 133 123 124 118 114 109 101 104 105 92 90 81 88 90 90 87 91 92 95 96 95 92 84 78 80 84 83 81 70 71 75 68 59 47 48 44 39 36 38 32 31 29 28 23 24 19 23 23 21 19 13 6 7 3 357 355 347 342 335 335 334 336 334 334 327 322 316 308 301 300 295 303 307 315
195 200 196 183 168 179 177 174 165 154 154 158 158 150 143 134 127 117 109 102 100 100 107 105 106 101 93 95 101 94 89 87 92 91 89 82 81 78 78 76 76 68 66 59 51 46 46 43 37 36 32 29 27 27 23 20 17 20 22 12 10 5 3 358 351 351 340 336 336 336 331 324 326 327 322 318 315 310 300 292 286 284 291 288 300
198 199 190 177 181 181 181 172 162 164 164 165 167 160 152 146 139 128 128 122 127 124 120 123 118 106 107 101 91 91 95 103 107 107 99 89 74 72 75 79 69 67 72 63 64 60 53 47 44 38 34 28 27 17 22 13 14 20 16 12 358 351 350 350 343 339 332 328 324 324 322 322 319 322 320 314 311 307 301 298 290 280 270 272 280
201 198 179 177 178 184 179 169 166 168 169 171 167 160 157 150 144 137 137 139 139 133 122 115 111 108 113 110 107 103 112 109 103 96 89 88 91 93 97 106 109 91 86 79 70 62 49 37 38 29 25 23 18 14 10 10 8 7 7 1 359 358 352 348 349 347 336 337 332 326 321 315 316 313 308 305 301 300 302 299 292 282 270 263 274
198 183 174 181 191 183 169 168 171 175 174 176 167 159 163 158 143 139 129 133 134 134 135 127 130 125 122 113 102 115 117 114 110 112 106 105 114 114 110 98 89 85 71 61 51 47 37 31 26 22 14 14 10 7 5 3 -0 3 353 352 349 350 348 343 340 343 336 335 330 330 329 327 324 319 314 313 311 306 299 297 291 287 281 270 269
180 171 178 184 182 174 170 169 169 166 165 162 165 167 166 156 153 162 153 156 149 147 139 139 138 137 131 126 131 127 116 108 111 110 105 97 94 86 78 82 82 63 57 52 50 41 31 29 18 16 15 3 3 357 355 353 349 344 342 335 335 339 337 332 330 330 332 330 327 321 319 318 318 317 318 320 316 314 312 301 295 289 282 276 271
168 173 177 183 174 171 174 170 163 161 171 175 174 165 164 170 171 166 162 162 154 159 154 150 150 138 131 129 125 125 122 106 95 90 91 103 98 90 93 85 77 69 62 48 47 33 27 22 14 10 5 355 349 347 342 342 337 333 329 328 327 330 324 320 321 320 325 323 320 316 314 316 316 310 311 312 313 315 314 308 304 302 295 292 280
178 177 180 178 175 177 181 182 178 178 177 177 175 174 174 176 173 178 167 174 169 163 156 152 145 139 136 135 133 122 116 120 119 121 106 99 95 92 81 85 77 63 53 60 35 40 23 13 9 357 351 349 342 338 337 333 326 325 321 321 320 319 318 317 317 313 316 316 313 311 310 313 316 313 309 307 308 306 306 303 300 300 296 291 288
178 183 177 177 177 179 178 183 179 182 185 184 180 180 179 179 182 176 179 173 171 161 160 151 145 140 139 136 135 140 127 125 108 107 106 95 97 97 94 95 94 75 68 47 34 30 22 2 359 342 338 334 331 327 324 318 311 310 307 307 308 305 302 301 301 304 308 311 309 309 308 313 314 309 307 308 305 303 304 300 298 296 293 291 289
182 184 179 168 182 188 190 187 189 185 181 181 182 188 182 186 187 184 184 176 168 163 155 156 149 147 152 150 151 142 131 131 129 128 129 125 120 111 97 98 88 72 89 100 44 42 40 339 316 311 311 312 316 313 309 302 299 297 297 297 296 295 293 295 296 296 299 301 303 302 305 309 310 305 304 305 305 304 301 298 294 294 291 289 286
184 180 176 193 193 189 194 194 187 186 186 185 187 188 187 188 194 192 182 175 172 161 165 153 153 153 166 167 160 155 159 157 156 156 153 144 124 116 115 121 126 170 160 168 162 157 182 261 294 294 307 312 315 312 303 302 299 301 296 293 291 290 292 294 295 296 297 298 298 297 299 301 301 299 298 300 300 298 298 291 290 289 288 287 285
193 192 193 188 197 201 196 191 190 186 186 188 187 187 188 188 197 205 199 180 172 165 162 159 162 168 169 177 171 177 167 164 162 157 143 133 132 126 138 165 175 181 164 175 171 156 203 155 309 338 322 325 316 307 302 297 298 293 292 293 297 296 295 293 291 294 294 292 291 293 294 296 293 292 293 295 299 299 296 294 293 293 291 289 288
196 196 196 202 205 195 193 192 187 187 183 190 191 190 189 187 194 196 201 194 177 166 164 167 167 175 183 185 183 173 162 159 146 139 139 139 135 145 175 192 179 180 166 171 161 142 173 54 335 343 318 320 309 302 295 293 288 288 288 294 297 299 298 296 291 290 292 293 292 292 290 288 287 288 291 295 299 301 302 297 297 296 295 294 292
203 211 209 208 204 197 190 187 187 178 189 194 192 195 195 194 194 195 193 201 181 172 174 174 175 187 196 184 170 160 144 141 139 135 138 143 147 168 196 203 183 171 158 171 155 174 165 159 314 297 303 302 296 289 294 290 299 304 309 307 307 305 305 302 302 297 294 292 292 290 286 285 289 293 293 294 295 297 299 297 295 296 297 296 294
212 217 215 214 209 192 189 184 189 193 196 196 196 197 197 196 196 193 195 199 172 185 179 182 188 199 191 175 170 157 150 140 140 145 146 142 152 193 210 196 191 183 210 206 213 226 160 228 269 284 292 287 283 283 285 295 305 309 311 309 305 302 303 304 303 304 303 294 290 290 290 292 295 297 298 297 295 293 290 287 291 296 295 294 293
221 220 219 213 209 200 189 194 200 199 200 198 201 201 199 198 194 190 196 191 180 185 193 190 201 198 181 165 163 168 149 153 146 133 137 146 176 199 209 204 215 213 216 219 219 189 165 268 277 296 297 285 282 280 292 303 308 310 308 305 303 302 301 300 299 300 303 306 302 296 295 295 294 294 292 291 294 294 293 292 291 290 288 287 291
219 220 215 213 210 202 200 204 204 203 201 203 204 201 192 201 195 198 197 175 182 192 195 200 202 181 175 173 174 158 158 153 140 150 151 158 166 202 213 214 218 212 228 206 224 176 257 256 276 281 282 284 278 289 300 304 309 309 309 305 301 298 298 294 294 294 296 301 302 302 297 294 288 287 295 297 295 291 292 293 292 290 288 285 283
221 212 211 212 211 209 207 208 203 201 202 207 196 184 198 200 197 205 171 176 190 194 197 201 193 180 183 180 170 168 163 157 155 149 152 158 179 209 214 218 219 224 216 222 232 242 238 266 281 288 286 287 280 295 299 305 308 310 308 306 296 293 291 291 292 294 294 297 295 296 296 290 291 292 295 290 290 288 287 290 290 289 288 285 284
233 221 216 215 210 209 208 206 203 204 204 194 185 195 205 200 195 169 174 189 185 196 196 201 186 188 180 173 171 168 167 161 151 150 154 169 187 210 217 220 213 231 225 257 244 246 252 281 303 303 296 293 290 293 301 306 309 307 306 303 294 292 290 289 289 289 288 287 289 292 295 294 294 295 290 289 288 292 292 291 288 286 286 282 282
223 228 224 212 204 205 200 203 206 198 186 172 195 203 188 167 171 177 186 182 194 194 199 197 190 184 168 172 171 171 164 154 148 153 162 182 195 207 213 209 204 229 239 250 262 271 290 298 302 303 296 293 286 299 305 308 307 306 303 305 296 292 287 282 283 284 282 284 284 285 290 294 295 296 290 289 290 290 289 285 277 268 266 264 264
214 206 214 197 199 198 195 204 190 166 184 185 197 181 174 190 161 178 180 188 187 194 200 182 189 183 182 176 170 168 160 152 151 157 174 193 195 202 203 202 203 234 238 253 280 288 295 301 299 298 295 291 291 302 306 306 305 305 306 304 295 286 282 282 283 284 283 283 280 279 284 287 289 290 291 290 289 289 285 279 275 269 264 260 257
219 198 208 203 193 189 195 168 169 181 177 197 180 165 172 162 171 180 172 178 172 192 199 192 194 186 184 177 171 164 163 158 159 170 188 198 195 204 205 186 233 279 286 296 295 297 297 295 292 284 289 289 288 297 301 304 306 306 308 296 289 285 283 285 284 286 286 281 278 277 279 283 286 286 287 289 290 290 284 275 272 271 268 261 258
212 215 237 204 197 177 165 172 168 183 192 171 165 161 162 170 184 170 166 179 182 206 199 190 195 186 178 166 164 159 161 165 166 187 191 194 184 204 197 183 278 292 289 286 297 289 277 274 279 282 278 285 276 294 303 305 306 305 303 298 294 286 283 283 285 285 283 282 280 282 282 280 279 281 285 288 290 292 289 285 278 272 266 265 269
207 196 198 197 189 173 165 153 159 183 194 167 164 157 157 181 178 179 177 182 206 210 192 195 189 163 161 154 151 154 157 165 179 184 178 185 191 196 186 180 225 250 268 281 279 285 283 268 252 263 287 294 291 295 301 303 304 304 304 295 291 289 287 289 292 291 287 282 283 273 271 277 283 285 290 292 293 294 290 287 283 279 272 259 263
216 226 223 158 140 122 128 158 180 207 164 163 158 162 172 176 184 161 180 202 213 210 189 163 146 146 145 147 148 150 157 164 174 166 168 176 162 142 198 216 252 263 270 280 281 279 282 275 256 258 256 271 282 280 292 301 302 302 303 300 295 292 293 293 291 286 283 278 272 274 265 281 289 291 291 292 292 292 290 283 281 279 277 274 277
196 207 169 148 176 177 180 189 200 177 161 163 156 153 181 183 164 170 201 215 200 147 149 151 135 139 141 143 144 153 157 163 158 163 159 156 171 189 182 210 247 261 264 284 282 275 273 275 263 260 252 262 263 281 287 302 302 304 303 302 293 286 286 284 279 272 265 270 283 287 273 289 295 294 293 292 290 287 281 281 281 280 273 277 284
222 162 163 173 180 205 225 247 222 163 167 164 163 174 182 167 161 201 216 149 135 147 141 143 145 144 144 143 146 145 145 152 149 136 149 174 189 171 206 209 234 245 274 282 283 283 285 282 268 249 243 255 269 288 296 300 303 302 302 299 294 284 284 285 283 269 291 297 295 290 284 288 295 295 292 289 287 286 290 293 288 288 292 299 300
181 191 205 174 184 204 212 215 188 164 167 176 172 180 178 170 195 215 144 136 138 141 142 141 140 145 150 152 153 152 151 147 152 159 155 176 187 184 211 208 216 248 275 290 286 292 298 295 288 249 247 244 258 262 293 293 298 303 302 300 296 293 296 297 296 294 288 282 284 287 291 291 288 289 292 295 297 301 305 303 303 304 303 302 303
229 219 194 177 198 208 216 219 179 172 175 178 178 185 183 185 215 142 134 129 138 138 140 140 148 151 148 151 154 151 150 157 156 154 161 170 191 194 206 214 210 230 275 286 287 292 298 302 307 297 254 275 267 271 275 286 294 302 305 304 302 301 300 296 291 290 296 296 293 283 279 290 300 303 301 301 304 310 307 305 302 300 299 301 305
209 215 195 187 198 206 215 219 196 185 189 190 194 188 184 204 194 145 153 152 147 147 146 155 157 157 154 153 144 155 163 169 177 165 172 178 194 181 193 230 181 257 255 274 277 277 286 293 297 298 312 312 303 287 277 279 300 307 308 305 304 303 303 303 301 293 287 286 294 299 301 301 301 309 319 321 316 307 304 303 304 305 310 317 316
230 232 193 205 213 219 211 223 223 199 197 196 202 189 189 211 149 161 155 154 150 150 158 162 162 159 164 156 161 176 182 186 182 187 188 186 180 189 183 207 203 236 230 250 270 273 277 279 282 295 305 309 293 282 281 284 291 294 293 297 301 304 306 305 303 302 301 300 299 300 306 316 327 326 321 317 313 312 312 311 309 312 315 310 307
219 223 191 204 200 209 219 219 228 212 200 204 202 215 210 139 165 158 158 154 157 161 161 164 169 171 164 172 176 183 182 185 192 185 186 182 183 173 183 205 215 222 234 231 253 262 276 275 281 292 296 300 301 289 292 287 272 280 286 289 290 282 303 306 301 282 289 290 301 321 328 322 324 323 320 315 314 314 312 309 307 304 302 302 301
224 218 178 194 196 215 221 217 228 221 195 197 199 207 189 164 161 161 156 155 162 171 172 177 178 173 176 179 186 183 182 187 195 180 180 194 200 183 188 207 198 208 210 242 235 256 259 269 279 285 288 284 282 298 297 275 282 273 278 300 308 308 302 289 296 311 316 325 331 329 331 333 326 326 325 320 312 309 306 307 308 311 309 308 309
216 217 191 199 204 214 224 218 231 213 179 193 205 198 181 175 169 163 160 163 171 172 169 170 172 167 182 181 183 188 190 192 200 205 217 200 190 196 211 230 227 192 204 225 248 251 249 250 254 261 267 277 285 267 250 298 304 313 314 312 310 305 312 325 325 323 323 333 335 332 328 331 333 323 321 316 311 311 315 315 311 311 313 312 309
230 201 198 212 214 213 221 223 232 196 185 195 199 193 189 182 166 168 167 169 167 164 169 182 175 181 179 177 185 190 193 193 195 209 230 276 242 231 219 212 239 231 236 239 235 230 235 236 238 239 224 228 237 271 303 311 314 312 312 310 311 320 323 325 328 330 340 345 343 329 322 321 322 322 316 317 318 318 318 316 312 313 311 310 309
214 192 215 212 222 220 228 235 230 187 194 195 197 190 185 183 174 174 174 169 159 166 179 181 180 193 188 183 183 187 191 186 196 193 206 235 317 290 270 264 267 268 265 267 269 272 277 280 282 297 285 278 289 301 308 309 310 312 308 314 323 325 330 335 333 345 15 345 330 324 320 318 315 312 309 308 312 312 310 310 310 309 306 307 309